Flag for Germany Past Weather in Pfaffenhofen an der Ilm, Bavaria, Germany — Yesterday and Last 2 Weeks

Now
72 °F

Passing clouds.


Feels Like: 77 °F
Forecast: 51 / 73 °F
Wind: 13 mph from Northwest

Location: Ingolstadt Airport

Current Time: Jun 27, 2016 at 6:41:17 PM

Latest Report: Jun 27, 2016 at 5:20 PM


Visibility: N/A

Pressure: 30.12 "Hg

Humidity: 38%

Dew Point: 45 °F

Location of Pfaffenhofen an der IlmLocation

Past Weather in Pfaffenhofen an der Ilm — Graph

°F

Pfaffenhofen an der Ilm Temperature Yesterday

Maximum temperature yesterday: 66 °F (at 1:20 PM)
Minimum temperature yesterday: 57 °F (at 3:20 AM)
Average temperature yesterday: 62 °F

High & Low Weather Summary for the Past Weeks

 TemperatureHumidityPressure
High90 °F (Jun 24, 5:20 PM)100% (Jun 13, 8:47 AM)30.27 "Hg (Jun 13, 8:47 AM)
Low48 °F (Jun 18, 5:20 AM)38% (Jun 24, 3:20 PM)29.56 "Hg (Jun 14, 3:20 PM)
Average64 °F75%29.96 "Hg
* Reported Jun 12 5:20 PM — Jun 27 5:20 PM, Pfaffenhofen an der Ilm, Weather by CustomWeather, © 2016

Note: Actual official high and low records may vary slightly from our data, if they occured in-between our weather recording intervals... More about our weather records

Advertising

Pfaffenhofen an der Ilm Weather History for the Previous 24 Hours

Scroll right to see more
 ConditionsComfort  
Time TempWeatherWind HumidityBarometerVisibility
5:20 PM
Mon, Jun 27
72 °FPassing clouds.13 mph38%30.12 "HgN/A
4:20 PM72 °FPartly sunny.13 mph41%30.12 "HgN/A
3:20 PM70 °FPartly sunny.12 mph46%30.12 "HgN/A
2:20 PM68 °FPartly sunny.8 mph49%30.12 "HgN/A
1:20 PM68 °FScattered clouds.9 mph53%30.15 "HgN/A
12:20 PM66 °FPassing clouds.10 mph56%30.15 "HgN/A
11:20 AM66 °FPassing clouds.9 mph60%30.15 "HgN/A
10:20 AM64 °FPassing clouds.6 mph64%30.18 "HgN/A
9:20 AM63 °FPassing clouds.6 mph73%30.18 "HgN/A
8:20 AM59 °FPassing clouds.6 mph88%30.15 "HgN/A
7:20 AM57 °FPassing clouds.5 mph94%30.15 "HgN/A
6:20 AM55 °FFog.1 mph100%30.15 "HgN/A
5:20 AM55 °FPartly cloudy.2 mph94%30.15 "HgN/A
4:20 AM55 °FCool.2 mph94%30.12 "Hg3 mi
3:20 AM57 °FCool.3 mph88%30.12 "Hg4 mi
2:20 AM57 °FCool.5 mph82%30.12 "Hg4 mi
1:20 AM59 °FCool.5 mph77%30.12 "Hg4 mi
12:20 AM57 °FCool.3 mph88%30.12 "Hg3 mi
11:20 PM
Sun, Jun 26
59 °FCool.3 mph82%30.12 "Hg3 mi
10:20 PM59 °FCool.1 mph88%30.12 "Hg3 mi
9:20 PM61 °FCool.5 mph88%30.09 "Hg3 mi
8:20 PM61 °FCool.3 mph88%30.09 "Hg3 mi
7:20 PM63 °FMild.5 mph83%30.09 "Hg4 mi
6:20 PM64 °FMild.1 mph64%30.09 "Hg3 mi
Weather by CustomWeather, © 2016

See weather overviewHow to use our weather pages